EUTELSAT 9B             
1 41310U 16005A   19266.01028584  .00000053  00000-0  00000+0 0  9990
2 41310   0.0910  84.2877 0004269 174.3009 115.6919  1.00272893 13459
BREEZE-M R/B            
1 41311U 16005B   19265.29124824 -.00000162  00000-0  00000+0 0  9996
2 41311  12.1140 217.7852 5931558 134.8886 292.1322  2.17159427 28905
BREEZE-M DEB [TANK]     
1 41312U 16005C   19264.92042208  .00000399  00000-0  92200-4 0  9990
2 41312  49.4475  73.2059 5908201 285.8678  19.3438  4.17941867 55523